Monistrol de Calders





Hora UTC 15:55
Temperatura 24.9 ºC
Humedad 58.0 %
Presión 1017.6 hPa
Pluja 0.0 mm
Velocidad viento 17.7 km/h
Dirección viento S

Datos diarios 2019-09-20



Hora UTC (invierno +1h; verano +2h)
Temperatura (ºC) Humedad (%) Presión (hPa) Velocidad viento (km/h) Precipitación (mm)
Hora UTC Aire Humedad Presión Vel. Dir. Vel. Max Dir. Intent. máx 5 min.
00:05 14.4 86.0 1020.0 1.6 SE 1.6 0.0
00:10 14.4 86.0 1020.1 1.6 SE 4.8 0.0
00:15 14.5 86.0 1020.1 3.2 SE 4.8 0.0
00:20 14.6 86.0 1020.0 3.2 SE 4.8 0.0
00:25 14.5 86.0 1019.9 1.6 SE 4.8 0.0
00:30 14.5 86.0 1020.0 0.0 SE 4.8 0.0
00:35 14.5 86.0 1019.9 0.0 SE 4.8 0.0
00:40 14.5 86.0 1020.0 0.0 SE 3.2 0.0
00:45 14.5 86.0 1019.9 1.6 SE 3.2 0.0
00:50 14.4 86.0 1019.9 1.6 SE 3.2 0.0
00:55 14.4 86.0 1019.9 1.6 SE 4.8 0.0
01:00 14.4 86.0 1020.0 0.0 SE 4.8 0.0
01:05 14.4 86.0 1020.0 0.0 SE 3.2 0.0
01:10 14.3 86.0 1020.0 0.0 SE 3.2 0.0
01:15 14.3 86.0 1020.0 0.0 SE 1.6 0.0
01:20 14.2 86.0 1020.0 0.0 SE 1.6 0.0
01:25 14.1 86.0 1020.0 1.6 SE 3.2 0.0
01:30 14.0 86.0 1019.9 1.6 SE 4.8 0.0
01:35 13.9 87.0 1019.9 0.0 SE 4.8 0.0
01:40 13.9 87.0 1019.9 0.0 SE 3.2 0.0
01:45 13.9 87.0 1020.0 0.0 SE 3.2 0.0
01:50 13.8 87.0 1020.0 0.0 SE 3.2 0.0
01:55 13.8 87.0 1019.9 1.6 SE 3.2 0.0
02:00 13.7 87.0 1019.9 1.6 SE 4.8 0.0
02:05 13.6 88.0 1019.9 1.6 SE 4.8 0.0
02:10 13.6 88.0 1019.8 0.0 SE 3.2 0.0
02:15 13.4 88.0 1019.7 1.6 SE 3.2 0.0
02:20 13.3 88.0 1019.8 1.6 SE 3.2 0.0
02:25 13.3 88.0 1019.8 0.0 SE 3.2 0.0
02:30 13.3 88.0 1019.8 0.0 SE 3.2 0.0
02:35 13.3 88.0 1019.8 0.0 SE 3.2 0.0
02:40 13.1 88.0 1019.8 1.6 SE 4.8 0.0
02:45 13.0 89.0 1019.7 3.2 SE 4.8 0.0
02:50 13.0 89.0 1019.7 3.2 SE 4.8 0.0
02:55 12.9 89.0 1019.7 4.8 SSE 8.0 0.0
03:00 12.8 89.0 1019.7 0.0 SSE 8.0 0.0
03:05 12.8 89.0 1019.7 0.0 SSE 8.0 0.0
03:10 12.8 89.0 1019.6 3.2 SSE 8.0 0.0
03:15 12.7 89.0 1019.6 1.6 SSE 8.0 0.0
03:20 12.7 89.0 1019.5 3.2 SSE 8.0 0.0
03:25 12.7 89.0 1019.5 0.0 SSE 4.8 0.0
03:30 12.7 89.0 1019.6 0.0 SSE 4.8 0.0
03:35 12.7 89.0 1019.6 1.6 SSE 3.2 0.0
03:40 12.6 89.0 1019.5 1.6 SSE 3.2 0.0
03:45 12.6 89.0 1019.6 1.6 SSE 3.2 0.0
03:50 12.6 89.0 1019.6 3.2 SE 8.0 0.0
03:55 12.5 89.0 1019.7 1.6 SE 8.0 0.0
04:00 12.4 89.0 1019.7 0.0 SE 8.0 0.0
04:05 12.3 90.0 1019.7 0.0 SE 3.2 0.0
04:10 12.3 90.0 1019.7 0.0 SE 1.6 0.0
04:15 12.3 90.0 1019.8 0.0 SE 1.6 0.0
04:20 12.3 90.0 1019.8 0.0 SE 3.2 0.0
04:25 12.2 89.0 1019.8 4.8 SE 4.8 0.0
04:30 12.2 90.0 1019.7 0.0 SE 4.8 0.0
04:35 12.2 90.0 1019.7 0.0 SE 4.8 0.0
04:40 12.2 90.0 1019.7 0.0 SE 4.8 0.0
04:45 12.2 90.0 1019.7 0.0 SE 4.8 0.0
04:50 12.1 90.0 1019.7 0.0 SE 4.8 0.0
04:55 12.1 90.0 1019.7 0.0 SE 1.6 0.0
05:00 12.0 90.0 1019.7 1.6 SE 4.8 0.0
05:05 12.0 90.0 1019.8 0.0 SE 4.8 0.0
05:10 12.0 90.0 1019.9 0.0 SE 4.8 0.0
05:15 11.9 90.0 1019.8 0.0 SE 1.6 0.0
05:20 11.8 90.0 1019.8 0.0 SE 1.6 0.0
05:25 11.7 90.0 1019.9 0.0 SE 3.2 0.0
05:30 11.7 90.0 1019.9 0.0 SE 3.2 0.0
05:35 11.7 90.0 1019.8 0.0 SE 3.2 0.0
05:40 11.7 90.0 1019.9 0.0 SE 1.6 0.0
05:45 11.7 90.0 1019.9 0.0 SE 1.6 0.0
05:50 11.7 90.0 1020.0 0.0 SE 1.6 0.0
05:55 11.6 90.0 1020.0 0.0 SE 1.6 0.0
06:00 11.6 90.0 1020.1 3.2 SE 4.8 0.0
06:05 11.7 91.0 1020.1 0.0 SE 4.8 0.0
06:10 11.7 91.0 1020.2 1.6 SE 3.2 0.0
06:15 11.8 91.0 1020.2 1.6 SE 1.6 0.0
06:20 11.9 90.0 1020.2 0.0 SE 1.6 0.0
06:25 12.0 90.0 1020.3 0.0 SE 1.6 0.0
06:30 12.1 90.0 1020.2 0.0 SE 1.6 0.0
06:35 12.2 90.0 1020.3 0.0 SE 3.2 0.0
06:40 12.4 90.0 1020.4 0.0 SE 3.2 0.0
06:45 12.9 90.0 1020.3 0.0 SE 3.2 0.0
06:50 13.3 90.0 1020.4 1.6 SE 3.2 0.0
06:55 13.7 89.0 1020.5 1.6 SE 3.2 0.0
07:00 13.9 88.0 1020.5 1.6 SE 3.2 0.0
07:05 14.2 87.0 1020.6 0.0 SE 3.2 0.0
07:10 14.6 87.0 1020.7 1.6 SE 3.2 0.0
07:15 14.8 86.0 1020.7 3.2 SE 3.2 0.0
07:20 15.2 85.0 1020.7 0.0 SE 3.2 0.0
07:25 15.6 83.0 1020.8 1.6 SE 3.2 0.0
07:30 16.0 83.0 1020.7 0.0 SE 3.2 0.0
07:35 16.4 82.0 1020.7 1.6 SE 3.2 0.0
07:40 16.7 80.0 1020.8 0.0 SE 3.2 0.0
07:45 16.9 79.0 1020.9 0.0 SE 1.6 0.0
07:50 16.9 79.0 1020.9 0.0 SE 1.6 0.0
07:55 17.1 79.0 1021.0 0.0 SE 1.6 0.0
08:00 17.2 79.0 1021.1 1.6 SE 3.2 0.0
08:05 17.8 78.0 1021.1 1.6 SE 3.2 0.0
08:10 18.2 77.0 1021.1 1.6 SE 4.8 0.0
08:15 18.6 76.0 1021.1 1.6 SE 4.8 0.0
08:20 18.8 76.0 1021.1 0.0 SE 3.2 0.0
08:25 19.2 76.0 1021.1 0.0 SE 3.2 0.0
08:30 19.4 75.0 1021.1 1.6 SE 3.2 0.0
08:35 19.6 74.0 1021.1 3.2 SE 4.8 0.0
08:40 19.9 73.0 1021.0 1.6 SE 3.2 0.0
08:45 20.2 71.0 1021.0 0.0 SE 3.2 0.0
08:50 20.6 71.0 1020.9 3.2 SE 4.8 0.0
08:55 21.1 70.0 1020.8 1.6 SE 4.8 0.0
09:00 21.5 68.0 1020.9 1.6 SE 3.2 0.0
09:05 22.0 67.0 1020.8 1.6 SE 3.2 0.0
09:10 22.4 65.0 1020.8 1.6 SE 3.2 0.0
09:15 23.0 61.0 1020.8 3.2 WSW 3.2 0.0
09:20 23.3 61.0 1020.8 3.2 SSW 6.4 0.0
09:25 23.7 60.0 1020.7 3.2 SW 6.4 0.0
09:30 23.9 59.0 1020.7 3.2 SW 8.0 0.0
09:35 23.9 58.0 1020.8 4.8 ESE 8.0 0.0
09:40 23.9 56.0 1020.7 11.3 SSW 14.5 0.0
09:45 24.0 57.0 1020.7 1.6 WNW 14.5 0.0
09:50 24.0 59.0 1020.7 3.2 WNW 11.3 0.0
09:55 24.1 58.0 1020.6 8.0 SW 11.3 0.0
10:00 23.9 59.0 1020.6 3.2 WNW 11.3 0.0
10:05 23.9 59.0 1020.6 6.4 WNW 11.3 0.0
10:10 24.0 60.0 1020.5 3.2 WNW 14.5 0.0
10:15 24.1 59.0 1020.5 3.2 WNW 14.5 0.0
10:20 24.4 58.0 1020.5 6.4 W 11.3 0.0
10:25 24.5 57.0 1020.5 9.7 W 11.3 0.0
10:30 24.3 57.0 1020.6 4.8 W 11.3 0.0
10:35 24.3 57.0 1020.4 4.8 WNW 11.3 0.0
10:40 24.4 57.0 1020.4 3.2 SW 11.3 0.0
10:45 24.8 56.0 1020.3 4.8 SW 6.4 0.0
10:50 25.2 52.0 1020.3 3.2 SSW 8.0 0.0
10:55 25.4 47.0 1020.1 0.0 ESE 9.7 0.0
11:00 25.8 50.0 1020.0 1.6 E 8.0 0.0
11:05 26.0 48.0 1020.0 4.8 S 8.0 0.0
11:10 26.1 46.0 1019.9 8.0 WSW 11.3 0.0
11:15 25.8 46.0 1019.9 6.4 SSE 19.3 0.0
11:20 25.7 48.0 1019.7 4.8 WSW 16.1 0.0
11:25 25.8 47.0 1019.7 12.9 SE 20.9 0.0
11:30 25.7 47.0 1019.7 11.3 S 20.9 0.0
11:35 25.9 46.0 1019.6 3.2 S 16.1 0.0
11:40 25.7 45.0 1019.5 14.5 SSE 17.7 0.0
11:45 25.7 46.0 1019.5 3.2 SSE 16.1 0.0
11:50 25.7 46.0 1019.5 8.0 NE 16.1 0.0
11:55 25.7 47.0 1019.4 4.8 SE 16.1 0.0
12:00 26.1 46.0 1019.4 8.0 SSE 9.7 0.0
12:05 26.3 45.0 1019.4 17.7 S 22.5 0.0
12:10 26.3 45.0 1019.4 11.3 SSE 19.3 0.0
12:15 26.1 46.0 1019.2 8.0 SSW 16.1 0.0
12:20 25.9 46.0 1019.1 6.4 ENE 16.1 0.0
12:25 26.0 46.0 1019.0 1.6 SSW 16.1 0.0
12:30 26.2 46.0 1019.0 4.8 E 11.3 0.0
12:35 26.3 46.0 1018.9 4.8 E 16.1 0.0
12:40 26.3 46.0 1018.9 11.3 S 17.7 0.0
12:45 26.3 45.0 1018.9 17.7 SSE 17.7 0.0
12:50 26.1 46.0 1018.9 17.7 S 19.3 0.0
12:55 26.2 46.0 1018.8 4.8 SE 17.7 0.0
13:00 26.2 45.0 1018.6 4.8 SE 17.7 0.0
13:05 26.2 45.0 1018.7 19.3 E 20.9 0.0
13:10 26.1 46.0 1018.6 3.2 E 20.9 0.0
13:15 26.2 46.0 1018.6 20.9 ESE 22.5 0.0
13:20 26.2 46.0 1018.4 6.4 SE 20.9 0.0
13:25 26.3 45.0 1018.4 11.3 ESE 20.9 0.0
13:30 26.3 46.0 1018.2 12.9 SSE 19.3 0.0
13:35 26.3 45.0 1018.2 6.4 S 20.9 0.0
13:40 26.5 46.0 1018.2 6.4 SE 20.9 0.0
13:45 26.6 45.0 1018.1 4.8 SSE 17.7 0.0
13:50 26.6 46.0 1018.1 14.5 S 20.9 0.0
13:55 26.5 46.0 1018.1 14.5 S 20.9 0.0
14:00 26.4 46.0 1018.0 11.3 SSE 20.9 0.0
14:05 26.4 46.0 1018.1 6.4 ESE 17.7 0.0
14:10 26.8 47.0 1018.0 4.8 ESE 16.1 0.0
14:15 26.9 46.0 1018.1 12.9 ENE 14.5 0.0
14:20 26.6 49.0 1017.9 11.3 SSW 25.7 0.0
14:25 26.3 51.0 1017.9 12.9 S 25.7 0.0
14:30 26.2 52.0 1017.8 6.4 SSE 19.3 0.0
14:35 26.1 53.0 1017.7 17.7 S 27.4 0.0
14:40 26.1 54.0 1017.6 16.1 SSE 27.4 0.0
14:45 26.2 53.0 1017.6 9.7 S 19.3 0.0
14:50 26.2 53.0 1017.5 16.1 SSE 22.5 0.0
14:55 26.2 53.0 1017.5 17.7 SSE 22.5 0.0
15:00 26.0 54.0 1017.4 6.4 S 20.9 0.0
15:05 25.9 54.0 1017.3 20.9 S 27.4 0.0
15:10 25.8 54.0 1017.4 12.9 S 24.1 0.0
15:15 25.7 54.0 1017.4 14.5 SSE 24.1 0.0
15:20 25.6 54.0 1017.4 12.9 ESE 20.9 0.0
15:25 25.6 55.0 1017.4 17.7 SSW 20.9 0.0
15:30 25.6 55.0 1017.6 11.3 SSE 25.7 0.0
15:35 25.5 55.0 1017.6 12.9 ESE 25.7 0.0
15:40 25.4 56.0 1017.5 19.3 S 24.1 0.0
15:45 25.3 57.0 1017.6 12.9 SE 24.1 0.0
15:50 25.2 57.0 1017.6 19.3 SE 30.6 0.0
15:55 24.9 58.0 1017.6 17.7 S 30.6 0.0
Máxima 27.0 91.0 1021.1 20.9 S 30.6 0.0
Mínima 11.5 45.0 1017.3
Total 0.0